contact:dominique.lefevre@mio.osupytheas.fr, maurice.libes@osupytheas.fr, didier.mallarino@osupytheas.fr
Project:EMSO http://www.emso-fr.org/EMSO-France
Depth: 2436.0 m
Title:EMSO Ligure Ouest : Data MII capteur OXYGEN
DateTime,Latitude,Longitude,Optode-Type,Optode_Serial,Oxygen,Saturation_Oxygen,Temperature
DateTime,Latitude,Longitude,Optode-Type,Optode_Serial,µmol.l-1,%,degC
2019-05-26T00:02:09,42.805,6.029,4330,1995,194.839,59.590,13.292
2019-05-26T00:05:09,42.805,6.029,4330,1995,194.826,59.584,13.291
2019-05-26T00:08:09,42.805,6.029,4330,1995,194.717,59.551,13.291
2019-05-26T00:11:09,42.805,6.029,4330,1995,194.645,59.529,13.291
2019-05-26T00:14:09,42.805,6.029,4330,1995,194.664,59.536,13.292
2019-05-26T00:17:09,42.805,6.029,4330,1995,194.728,59.555,13.291
2019-05-26T00:20:09,42.805,6.029,4330,1995,194.708,59.550,13.292
2019-05-26T00:23:09,42.805,6.029,4330,1995,194.781,59.572,13.292
2019-05-26T00:26:09,42.805,6.029,4330,1995,194.794,59.576,13.292
2019-05-26T00:29:09,42.805,6.029,4330,1995,194.843,59.590,13.292
2019-05-26T00:32:09,42.805,6.029,4330,1995,194.766,59.568,13.292
2019-05-26T00:35:09,42.805,6.029,4330,1995,194.870,59.600,13.292
2019-05-26T00:38:09,42.805,6.029,4330,1995,194.809,59.579,13.291
2019-05-26T00:41:09,42.805,6.029,4330,1995,194.884,59.605,13.293
2019-05-26T00:44:09,42.805,6.029,4330,1995,194.880,59.603,13.292
2019-05-26T00:47:09,42.805,6.029,4330,1995,194.827,59.586,13.292
2019-05-26T00:50:09,42.805,6.029,4330,1995,195.055,59.654,13.290
2019-05-26T00:53:09,42.805,6.029,4330,1995,195.084,59.663,13.291
2019-05-26T00:56:09,42.805,6.029,4330,1995,195.062,59.657,13.291
2019-05-26T00:59:09,42.805,6.029,4330,1995,194.988,59.641,13.296
2019-05-26T01:02:09,42.805,6.029,4330,1995,194.852,59.595,13.293
2019-05-26T01:05:09,42.805,6.029,4330,1995,194.807,59.581,13.293
2019-05-26T01:08:09,42.805,6.029,4330,1995,194.692,59.549,13.295
2019-05-26T01:11:09,42.805,6.029,4330,1995,194.695,59.549,13.294
2019-05-26T01:14:09,42.805,6.029,4330,1995,194.569,59.511,13.295
2019-05-26T01:17:09,42.805,6.029,4330,1995,194.608,59.524,13.295
2019-05-26T01:20:09,42.805,6.029,4330,1995,194.578,59.514,13.295
2019-05-26T01:23:09,42.805,6.029,4330,1995,194.645,59.533,13.294
2019-05-26T01:26:09,42.805,6.029,4330,1995,194.507,59.491,13.294
2019-05-26T01:29:09,42.805,6.029,4330,1995,194.524,59.493,13.291
2019-05-26T01:32:09,42.805,6.029,4330,1995,194.638,59.534,13.296
2019-05-26T01:35:09,42.805,6.029,4330,1995,194.536,59.501,13.295
2019-05-26T01:38:09,42.805,6.029,4330,1995,194.481,59.481,13.292
2019-05-26T01:41:09,42.805,6.029,4330,1995,194.549,59.502,13.292
2019-05-26T01:44:09,42.805,6.029,4330,1995,194.509,59.488,13.292
2019-05-26T01:47:09,42.805,6.029,4330,1995,194.632,59.527,13.293
2019-05-26T01:50:09,42.805,6.029,4330,1995,194.562,59.505,13.292
2019-05-26T01:53:09,42.805,6.029,4330,1995,194.679,59.539,13.291
2019-05-26T01:56:09,42.805,6.029,4330,1995,194.660,59.535,13.292
2019-05-26T01:59:09,42.805,6.029,4330,1995,194.726,59.554,13.291
2019-05-26T02:02:09,42.805,6.029,4330,1995,194.847,59.589,13.290
2019-05-26T02:05:09,42.805,6.029,4330,1995,194.811,59.579,13.291
2019-05-26T02:08:09,42.805,6.029,4330,1995,194.788,59.572,13.291
2019-05-26T02:11:09,42.805,6.029,4330,1995,194.787,59.572,13.290
2019-05-26T02:14:09,42.805,6.029,4330,1995,194.874,59.597,13.290
2019-05-26T02:17:09,42.805,6.029,4330,1995,194.807,59.578,13.291
2019-05-26T02:20:09,42.805,6.029,4330,1995,194.723,59.553,13.291
2019-05-26T02:23:09,42.805,6.029,4330,1995,194.702,59.546,13.291
2019-05-26T02:26:09,42.805,6.029,4330,1995,194.889,59.602,13.290
2019-05-26T02:29:09,42.805,6.029,4330,1995,194.808,59.579,13.291
2019-05-26T02:32:09,42.805,6.029,4330,1995,194.729,59.556,13.292
2019-05-26T02:35:09,42.805,6.029,4330,1995,194.904,59.610,13.292
2019-05-26T02:38:09,42.805,6.029,4330,1995,194.978,59.633,13.293
2019-05-26T02:41:09,42.805,6.029,4330,1995,194.966,59.629,13.292
2019-05-26T02:44:09,42.805,6.029,4330,1995,194.916,59.614,13.292
2019-05-26T02:47:09,42.805,6.029,4330,1995,194.868,59.597,13.291
2019-05-26T02:50:09,42.805,6.029,4330,1995,194.807,59.580,13.292
2019-05-26T02:53:09,42.805,6.029,4330,1995,194.726,59.555,13.292
2019-05-26T02:56:09,42.805,6.029,4330,1995,194.684,59.543,13.292
2019-05-26T02:59:09,42.805,6.029,4330,1995,194.692,59.546,13.293
2019-05-26T03:02:09,42.805,6.029,4330,1995,194.738,59.560,13.293
2019-05-26T03:05:09,42.805,6.029,4330,1995,194.815,59.584,13.293
2019-05-26T03:08:09,42.805,6.029,4330,1995,194.796,59.579,13.294
2019-05-26T03:11:09,42.805,6.029,4330,1995,194.687,59.547,13.295
2019-05-26T03:14:09,42.805,6.029,4330,1995,194.709,59.549,13.291
2019-05-26T03:17:09,42.805,6.029,4330,1995,194.724,59.556,13.293
2019-05-26T03:20:09,42.805,6.029,4330,1995,194.773,59.572,13.294
2019-05-26T03:23:09,42.805,6.029,4330,1995,194.822,59.582,13.290
2019-05-26T03:26:09,42.805,6.029,4330,1995,194.944,59.623,13.293
2019-05-26T03:29:09,42.805,6.029,4330,1995,194.894,59.609,13.294
2019-05-26T03:32:09,42.805,6.029,4330,1995,194.815,59.584,13.293
2019-05-26T03:35:09,42.805,6.029,4330,1995,194.910,59.613,13.293
2019-05-26T03:38:09,42.805,6.029,4330,1995,194.761,59.569,13.294
2019-05-26T03:41:09,42.805,6.029,4330,1995,194.864,59.600,13.294
2019-05-26T03:44:09,42.805,6.029,4330,1995,194.856,59.597,13.294
2019-05-26T03:47:09,42.805,6.029,4330,1995,194.790,59.575,13.292
2019-05-26T03:50:09,42.805,6.029,4330,1995,194.839,59.592,13.294
2019-05-26T03:53:09,42.805,6.029,4330,1995,194.885,59.606,13.294
2019-05-26T03:56:09,42.805,6.029,4330,1995,194.856,59.597,13.294
2019-05-26T03:59:09,42.805,6.029,4330,1995,194.846,59.591,13.291
2019-05-26T04:02:09,42.805,6.029,4330,1995,194.844,59.591,13.292
2019-05-26T04:05:09,42.805,6.029,4330,1995,194.900,59.607,13.291
2019-05-26T04:08:09,42.805,6.029,4330,1995,194.722,59.552,13.291
2019-05-26T04:11:09,42.805,6.029,4330,1995,194.728,59.554,13.291
2019-05-26T04:14:09,42.805,6.029,4330,1995,194.775,59.567,13.290
2019-05-26T04:17:09,42.805,6.029,4330,1995,194.721,59.553,13.291
2019-05-26T04:20:09,42.805,6.029,4330,1995,194.725,59.553,13.291
2019-05-26T04:23:09,42.805,6.029,4330,1995,194.674,59.538,13.291
2019-05-26T04:26:09,42.805,6.029,4330,1995,194.570,59.506,13.291
2019-05-26T04:29:09,42.805,6.029,4330,1995,194.784,59.570,13.290
2019-05-26T04:32:09,42.805,6.029,4330,1995,194.619,59.518,13.289
2019-05-26T04:35:09,42.805,6.029,4330,1995,194.734,59.556,13.291
2019-05-26T04:38:09,42.805,6.029,4330,1995,194.716,59.548,13.289
2019-05-26T04:41:09,42.805,6.029,4330,1995,194.588,59.513,13.292
2019-05-26T04:44:09,42.805,6.029,4330,1995,194.579,59.509,13.291
2019-05-26T04:47:09,42.805,6.029,4330,1995,194.439,59.464,13.289
2019-05-26T04:50:09,42.805,6.029,4330,1995,194.388,59.449,13.290
2019-05-26T04:53:09,42.805,6.029,4330,1995,194.426,59.461,13.290
2019-05-26T04:56:09,42.805,6.029,4330,1995,194.616,59.519,13.290
2019-05-26T04:59:09,42.805,6.029,4330,1995,194.488,59.482,13.292
2019-05-26T05:02:09,42.805,6.029,4330,1995,194.405,59.457,13.292
2019-05-26T05:05:09,42.805,6.029,4330,1995,194.485,59.479,13.290
2019-05-26T05:08:09,42.805,6.029,4330,1995,194.428,59.464,13.292
2019-05-26T05:11:09,42.805,6.029,4330,1995,194.415,59.461,13.292
2019-05-26T05:14:09,42.805,6.029,4330,1995,194.340,59.434,13.290
2019-05-26T05:17:09,42.805,6.029,4330,1995,194.386,59.450,13.291
2019-05-26T05:20:09,42.805,6.029,4330,1995,194.510,59.488,13.291
2019-05-26T05:23:09,42.805,6.029,4330,1995,194.416,59.460,13.291
2019-05-26T05:26:09,42.805,6.029,4330,1995,194.454,59.471,13.291
2019-05-26T05:29:09,42.805,6.029,4330,1995,194.490,59.482,13.291
2019-05-26T05:32:09,42.805,6.029,4330,1995,194.384,59.450,13.291
2019-05-26T05:35:09,42.805,6.029,4330,1995,194.322,59.432,13.292
2019-05-26T05:38:09,42.805,6.029,4330,1995,194.331,59.436,13.293
2019-05-26T05:41:09,42.805,6.029,4330,1995,194.308,59.426,13.291
2019-05-26T05:44:09,42.805,6.029,4330,1995,194.372,59.445,13.290
2019-05-26T05:47:09,42.805,6.029,4330,1995,194.392,59.451,13.291
2019-05-26T05:50:09,42.805,6.029,4330,1995,194.458,59.473,13.292
2019-05-26T05:53:09,42.805,6.029,4330,1995,194.566,59.506,13.291
2019-05-26T05:56:09,42.805,6.029,4330,1995,194.563,59.504,13.291
2019-05-26T05:59:09,42.805,6.029,4330,1995,194.484,59.479,13.290
2019-05-26T06:02:09,42.805,6.029,4330,1995,194.522,59.492,13.292
2019-05-26T06:05:09,42.805,6.029,4330,1995,194.399,59.454,13.291
2019-05-26T06:08:09,42.805,6.029,4330,1995,194.476,59.476,13.290
2019-05-26T06:11:09,42.805,6.029,4330,1995,194.523,59.490,13.290
2019-05-26T06:14:09,42.805,6.029,4330,1995,194.479,59.476,13.290
2019-05-26T06:17:09,42.805,6.029,4330,1995,194.511,59.487,13.290
2019-05-26T06:20:09,42.805,6.029,4330,1995,194.500,59.483,13.289
2019-05-26T06:23:09,42.805,6.029,4330,1995,194.531,59.493,13.290
2019-05-26T06:26:09,42.805,6.029,4330,1995,194.516,59.487,13.289
2019-05-26T06:29:09,42.805,6.029,4330,1995,194.591,59.510,13.289
2019-05-26T06:32:09,42.805,6.029,4330,1995,194.562,59.501,13.289
2019-05-26T06:35:09,42.805,6.029,4330,1995,194.440,59.463,13.288
2019-05-26T06:38:09,42.805,6.029,4330,1995,194.453,59.468,13.289
2019-05-26T06:41:09,42.805,6.029,4330,1995,194.548,59.498,13.290
2019-05-26T06:44:09,42.805,6.029,4330,1995,194.629,59.521,13.289
2019-05-26T06:47:09,42.805,6.029,4330,1995,194.560,59.501,13.289
2019-05-26T06:50:09,42.805,6.029,4330,1995,194.556,59.500,13.290
2019-05-26T06:53:09,42.805,6.029,4330,1995,194.435,59.463,13.289
2019-05-26T06:56:09,42.805,6.029,4330,1995,194.330,59.431,13.290
2019-05-26T06:59:09,42.805,6.029,4330,1995,194.416,59.458,13.290
2019-05-26T07:02:09,42.805,6.029,4330,1995,194.241,59.406,13.291
2019-05-26T07:05:09,42.805,6.029,4330,1995,194.250,59.407,13.290
2019-05-26T07:08:09,42.805,6.029,4330,1995,194.260,59.411,13.291
2019-05-26T07:11:09,42.805,6.029,4330,1995,194.249,59.407,13.290
2019-05-26T07:14:09,42.805,6.029,4330,1995,194.143,59.375,13.291
2019-05-26T07:17:09,42.805,6.029,4330,1995,194.036,59.342,13.291
2019-05-26T07:20:09,42.805,6.029,4330,1995,194.081,59.356,13.290
2019-05-26T07:23:09,42.805,6.029,4330,1995,194.180,59.386,13.290
2019-05-26T07:26:09,42.805,6.029,4330,1995,194.333,59.435,13.292
2019-05-26T07:29:09,42.805,6.029,4330,1995,194.167,59.384,13.292
2019-05-26T07:32:09,42.805,6.029,4330,1995,194.161,59.382,13.292
2019-05-26T07:35:09,42.805,6.029,4330,1995,194.130,59.373,13.292
2019-05-26T07:38:09,42.805,6.029,4330,1995,194.212,59.398,13.292
2019-05-26T07:41:09,42.805,6.029,4330,1995,194.144,59.376,13.291
2019-05-26T07:44:09,42.805,6.029,4330,1995,194.117,59.368,13.292
2019-05-26T07:47:09,42.805,6.029,4330,1995,194.200,59.394,13.292
2019-05-26T07:50:08,42.805,6.029,4330,1995,194.217,59.399,13.291
2019-05-26T07:53:08,42.805,6.029,4330,1995,194.285,59.418,13.290
2019-05-26T07:56:08,42.805,6.029,4330,1995,194.102,59.366,13.293
2019-05-26T07:59:08,42.805,6.029,4330,1995,194.186,59.388,13.291
2019-05-26T08:02:08,42.805,6.029,4330,1995,194.258,59.414,13.294
2019-05-26T08:05:08,42.805,6.029,4330,1995,194.326,59.434,13.293
2019-05-26T08:08:08,42.805,6.029,4330,1995,194.293,59.423,13.292
2019-05-26T08:11:08,42.805,6.029,4330,1995,194.237,59.407,13.293
2019-05-26T08:14:08,42.805,6.029,4330,1995,194.121,59.371,13.292
2019-05-26T08:17:08,42.805,6.029,4330,1995,194.131,59.373,13.292
2019-05-26T08:20:08,42.805,6.029,4330,1995,194.098,59.362,13.291
2019-05-26T08:23:08,42.805,6.029,4330,1995,194.143,59.377,13.292
2019-05-26T08:26:08,42.805,6.029,4330,1995,194.160,59.382,13.292
2019-05-26T08:29:08,42.805,6.029,4330,1995,194.222,59.400,13.291
2019-05-26T08:32:08,42.805,6.029,4330,1995,194.065,59.351,13.290
2019-05-26T08:35:08,42.805,6.029,4330,1995,194.164,59.382,13.291
2019-05-26T08:38:08,42.805,6.029,4330,1995,194.064,59.350,13.290
2019-05-26T08:41:08,42.805,6.029,4330,1995,194.247,59.405,13.289
2019-05-26T08:44:08,42.805,6.029,4330,1995,194.180,59.385,13.290
2019-05-26T08:47:08,42.805,6.029,4330,1995,194.245,59.406,13.291
2019-05-26T08:50:08,42.805,6.029,4330,1995,194.348,59.437,13.290
2019-05-26T08:53:08,42.805,6.029,4330,1995,194.275,59.415,13.291
2019-05-26T08:56:08,42.805,6.029,4330,1995,194.236,59.402,13.290
2019-05-26T08:59:08,42.805,6.029,4330,1995,194.122,59.367,13.289
2019-05-26T09:02:08,42.805,6.029,4330,1995,194.113,59.365,13.290
2019-05-26T09:05:08,42.805,6.029,4330,1995,194.413,59.457,13.290
2019-05-26T09:08:08,42.805,6.029,4330,1995,194.425,59.461,13.290
2019-05-26T09:11:08,42.805,6.029,4330,1995,194.270,59.413,13.290
2019-05-26T09:14:08,42.805,6.029,4330,1995,194.200,59.392,13.290
2019-05-26T09:17:08,42.805,6.029,4330,1995,194.258,59.411,13.291
2019-05-26T09:20:08,42.805,6.029,4330,1995,194.111,59.367,13.292
2019-05-26T09:23:08,42.805,6.029,4330,1995,194.093,59.361,13.291
2019-05-26T09:26:08,42.805,6.029,4330,1995,194.129,59.372,13.292
2019-05-26T09:29:08,42.805,6.029,4330,1995,194.137,59.374,13.291
2019-05-26T09:32:08,42.805,6.029,4330,1995,194.061,59.350,13.291
2019-05-26T09:35:08,42.805,6.029,4330,1995,194.232,59.402,13.291
2019-05-26T09:38:08,42.805,6.029,4330,1995,194.237,59.406,13.292
2019-05-26T09:41:08,42.805,6.029,4330,1995,194.182,59.389,13.292
2019-05-26T09:44:08,42.805,6.029,4330,1995,194.055,59.351,13.293
2019-05-26T09:47:08,42.805,6.029,4330,1995,194.021,59.342,13.294
2019-05-26T09:50:08,42.805,6.029,4330,1995,194.094,59.364,13.293
2019-05-26T09:53:08,42.805,6.029,4330,1995,194.127,59.373,13.293
2019-05-26T09:56:08,42.805,6.029,4330,1995,194.169,59.386,13.293
2019-05-26T09:59:08,42.805,6.029,4330,1995,194.176,59.387,13.292
2019-05-26T10:02:08,42.805,6.029,4330,1995,194.183,59.391,13.294
2019-05-26T10:05:08,42.805,6.029,4330,1995,194.125,59.372,13.292
2019-05-26T10:08:08,42.805,6.029,4330,1995,194.166,59.385,13.293
2019-05-26T10:11:08,42.805,6.029,4330,1995,194.270,59.419,13.294
2019-05-26T10:14:08,42.805,6.029,4330,1995,194.222,59.402,13.293
2019-05-26T10:17:08,42.805,6.029,4330,1995,194.146,59.380,13.294
2019-05-26T10:20:08,42.805,6.029,4330,1995,194.112,59.370,13.294
2019-05-26T10:23:08,42.805,6.029,4330,1995,194.051,59.350,13.293
2019-05-26T10:26:08,42.805,6.029,4330,1995,194.133,59.374,13.292
2019-05-26T10:29:08,42.805,6.029,4330,1995,194.099,59.367,13.295
2019-05-26T10:32:08,42.805,6.029,4330,1995,194.104,59.367,13.294
2019-05-26T10:35:08,42.805,6.029,4330,1995,194.030,59.346,13.295
2019-05-26T10:38:08,42.805,6.029,4330,1995,194.083,59.360,13.293
2019-05-26T10:41:08,42.805,6.029,4330,1995,193.919,59.310,13.293
2019-05-26T10:44:08,42.805,6.029,4330,1995,193.779,59.271,13.297
2019-05-26T10:47:08,42.805,6.029,4330,1995,193.837,59.284,13.292
2019-05-26T10:50:08,42.805,6.029,4330,1995,193.713,59.251,13.296
2019-05-26T10:53:08,42.805,6.029,4330,1995,193.711,59.251,13.297
2019-05-26T10:56:08,42.805,6.029,4330,1995,193.774,59.265,13.293
2019-05-26T10:59:08,42.805,6.029,4330,1995,193.698,59.241,13.292
2019-05-26T11:02:08,42.805,6.029,4330,1995,193.652,59.228,13.293
2019-05-26T11:05:08,42.805,6.029,4330,1995,193.558,59.207,13.298
2019-05-26T11:08:08,42.805,6.029,4330,1995,193.506,59.192,13.299
2019-05-26T11:11:08,42.805,6.029,4330,1995,193.533,59.194,13.294
2019-05-26T11:14:08,42.805,6.029,4330,1995,193.493,59.182,13.295
2019-05-26T11:17:08,42.805,6.029,4330,1995,193.287,59.122,13.297
2019-05-26T11:20:08,42.805,6.029,4330,1995,193.246,59.115,13.301
2019-05-26T11:23:08,42.805,6.029,4330,1995,193.501,59.189,13.298
2019-05-26T11:26:08,42.805,6.029,4330,1995,193.589,59.214,13.297
2019-05-26T11:29:08,42.805,6.029,4330,1995,193.262,59.119,13.301
2019-05-26T11:32:08,42.805,6.029,4330,1995,193.160,59.085,13.298
2019-05-26T11:35:08,42.805,6.029,4330,1995,193.074,59.062,13.301
2019-05-26T11:38:08,42.805,6.029,4330,1995,193.088,59.063,13.299
2019-05-26T11:41:08,42.805,6.029,4330,1995,193.052,59.053,13.299
2019-05-26T11:44:08,42.805,6.029,4330,1995,193.104,59.068,13.299
2019-05-26T11:47:08,42.805,6.029,4330,1995,193.140,59.080,13.299
2019-05-26T11:50:08,42.805,6.029,4330,1995,193.053,59.057,13.302
2019-05-26T11:53:08,42.805,6.029,4330,1995,193.041,59.053,13.302
2019-05-26T11:56:08,42.805,6.029,4330,1995,193.118,59.073,13.299
2019-05-26T11:59:08,42.805,6.029,4330,1995,193.022,59.040,13.297
2019-05-26T12:02:08,42.805,6.029,4330,1995,192.955,59.020,13.297
2019-05-26T12:05:08,42.805,6.029,4330,1995,193.066,59.057,13.299
2019-05-26T12:08:08,42.805,6.029,4330,1995,192.954,59.027,13.303
2019-05-26T12:11:08,42.805,6.029,4330,1995,193.020,59.045,13.301
2019-05-26T12:14:08,42.805,6.029,4330,1995,193.102,59.069,13.300
2019-05-26T12:17:08,42.805,6.029,4330,1995,193.115,59.075,13.301
2019-05-26T12:20:08,42.805,6.029,4330,1995,193.067,59.057,13.299
2019-05-26T12:23:08,42.805,6.029,4330,1995,193.031,59.046,13.299
2019-05-26T12:26:08,42.805,6.029,4330,1995,193.122,59.072,13.297
2019-05-26T12:29:08,42.805,6.029,4330,1995,193.287,59.123,13.298
2019-05-26T12:32:08,42.805,6.029,4330,1995,193.139,59.078,13.298
2019-05-26T12:35:08,42.805,6.029,4330,1995,193.173,59.084,13.295
2019-05-26T12:38:08,42.805,6.029,4330,1995,193.069,59.055,13.297
2019-05-26T12:41:08,42.805,6.029,4330,1995,192.986,59.031,13.298
2019-05-26T12:44:08,42.805,6.029,4330,1995,193.027,59.046,13.300
2019-05-26T12:47:08,42.805,6.029,4330,1995,193.059,59.055,13.299
2019-05-26T12:50:08,42.805,6.029,4330,1995,192.684,58.943,13.301
2019-05-26T12:53:08,42.805,6.029,4330,1995,192.557,58.901,13.299
2019-05-26T12:56:08,42.805,6.029,4330,1995,192.486,58.878,13.298
2019-05-26T12:59:08,42.805,6.029,4330,1995,192.713,58.947,13.298
2019-05-26T13:02:08,42.805,6.029,4330,1995,192.929,59.009,13.295
2019-05-26T13:05:08,42.805,6.029,4330,1995,193.006,59.035,13.296
2019-05-26T13:08:08,42.805,6.029,4330,1995,193.065,59.052,13.295
2019-05-26T13:11:08,42.805,6.029,4330,1995,192.957,59.019,13.296
2019-05-26T13:14:08,42.805,6.029,4330,1995,192.998,59.033,13.297
2019-05-26T13:17:08,42.805,6.029,4330,1995,193.116,59.071,13.298
2019-05-26T13:20:08,42.805,6.029,4330,1995,193.305,59.127,13.297
2019-05-26T13:23:08,42.805,6.029,4330,1995,193.257,59.115,13.299
2019-05-26T13:26:08,42.805,6.029,4330,1995,193.142,59.073,13.294
2019-05-26T13:29:08,42.805,6.029,4330,1995,193.232,59.105,13.297
2019-05-26T13:32:08,42.805,6.029,4330,1995,193.259,59.113,13.297
2019-05-26T13:35:08,42.805,6.029,4330,1995,193.154,59.081,13.297
2019-05-26T13:38:08,42.805,6.029,4330,1995,193.168,59.085,13.297
2019-05-26T13:41:08,42.805,6.029,4330,1995,193.235,59.104,13.296
2019-05-26T13:44:08,42.805,6.029,4330,1995,193.096,59.064,13.298
2019-05-26T13:47:08,42.805,6.029,4330,1995,193.140,59.075,13.295
2019-05-26T13:50:08,42.805,6.029,4330,1995,193.483,59.179,13.295
2019-05-26T13:53:08,42.805,6.029,4330,1995,193.648,59.233,13.297
2019-05-26T13:56:08,42.805,6.029,4330,1995,193.544,59.201,13.298
2019-05-26T13:59:08,42.805,6.029,4330,1995,193.438,59.170,13.299
2019-05-26T14:02:08,42.805,6.029,4330,1995,193.354,59.146,13.300
2019-05-26T14:05:08,42.805,6.029,4330,1995,193.271,59.121,13.300
2019-05-26T14:08:08,42.805,6.029,4330,1995,193.242,59.110,13.299
2019-05-26T14:11:08,42.805,6.029,4330,1995,193.223,59.105,13.299
2019-05-26T14:14:08,42.805,6.029,4330,1995,193.188,59.098,13.302
2019-05-26T14:17:08,42.805,6.029,4330,1995,193.147,59.082,13.299
2019-05-26T14:20:08,42.805,6.029,4330,1995,192.992,59.036,13.300
2019-05-26T14:23:08,42.805,6.029,4330,1995,192.887,59.003,13.300
2019-05-26T14:26:08,42.805,6.029,4330,1995,193.105,59.067,13.298
2019-05-26T14:29:08,42.805,6.029,4330,1995,193.348,59.142,13.298
2019-05-26T14:32:08,42.805,6.029,4330,1995,193.227,59.105,13.298
2019-05-26T14:35:08,42.805,6.029,4330,1995,193.109,59.067,13.297
2019-05-26T14:38:08,42.805,6.029,4330,1995,193.177,59.091,13.299
2019-05-26T14:41:08,42.805,6.029,4330,1995,193.049,59.051,13.299
2019-05-26T14:44:08,42.805,6.029,4330,1995,193.084,59.063,13.300
2019-05-26T14:47:08,42.805,6.029,4330,1995,193.312,59.128,13.296
2019-05-26T14:50:08,42.805,6.029,4330,1995,193.549,59.203,13.298
2019-05-26T14:53:08,42.805,6.029,4330,1995,193.413,59.163,13.299
2019-05-26T14:56:08,42.805,6.029,4330,1995,193.446,59.173,13.299
2019-05-26T14:59:08,42.805,6.029,4330,1995,193.345,59.143,13.299
2019-05-26T15:02:08,42.805,6.029,4330,1995,193.411,59.159,13.296
2019-05-26T15:05:08,42.805,6.029,4330,1995,193.549,59.201,13.296
2019-05-26T15:08:08,42.805,6.029,4330,1995,193.476,59.181,13.298
2019-05-26T15:11:08,42.805,6.029,4330,1995,193.390,59.155,13.298
2019-05-26T15:14:08,42.805,6.029,4330,1995,193.500,59.188,13.298
2019-05-26T15:17:08,42.805,6.029,4330,1995,193.337,59.139,13.299
2019-05-26T15:20:08,42.805,6.029,4330,1995,193.314,59.130,13.297
2019-05-26T15:23:08,42.805,6.029,4330,1995,193.212,59.102,13.300
2019-05-26T15:26:08,42.805,6.029,4330,1995,193.098,59.066,13.299
2019-05-26T15:29:08,42.805,6.029,4330,1995,192.820,58.981,13.299
2019-05-26T15:32:08,42.805,6.029,4330,1995,192.751,58.955,13.295
2019-05-26T15:35:08,42.805,6.029,4330,1995,192.921,59.009,13.296
2019-05-26T15:38:08,42.805,6.029,4330,1995,193.162,59.081,13.295
2019-05-26T15:41:08,42.805,6.029,4330,1995,193.322,59.129,13.295
2019-05-26T15:44:08,42.805,6.029,4330,1995,193.427,59.165,13.298
2019-05-26T15:47:08,42.805,6.029,4330,1995,193.475,59.178,13.296
2019-05-26T15:50:08,42.805,6.029,4330,1995,193.373,59.148,13.297
2019-05-26T15:53:08,42.805,6.029,4330,1995,193.325,59.133,13.297
2019-05-26T15:56:08,42.805,6.029,4330,1995,193.237,59.112,13.301
2019-05-26T15:59:08,42.805,6.029,4330,1995,193.206,59.101,13.300
2019-05-26T16:02:08,42.805,6.029,4330,1995,193.081,59.061,13.299
2019-05-26T16:05:08,42.805,6.029,4330,1995,193.291,59.124,13.298
2019-05-26T16:08:08,42.805,6.029,4330,1995,193.280,59.123,13.300
2019-05-26T16:11:08,42.805,6.029,4330,1995,193.320,59.135,13.300
2019-05-26T16:14:08,42.805,6.029,4330,1995,193.334,59.138,13.298
2019-05-26T16:17:08,42.805,6.029,4330,1995,193.348,59.146,13.302
2019-05-26T16:20:08,42.805,6.029,4330,1995,193.393,59.160,13.301
2019-05-26T16:23:08,42.805,6.029,4330,1995,193.222,59.103,13.297
2019-05-26T16:26:08,42.805,6.029,4330,1995,193.050,59.054,13.300
2019-05-26T16:29:08,42.805,6.029,4330,1995,192.974,59.029,13.299
2019-05-26T16:32:08,42.805,6.029,4330,1995,192.915,59.010,13.299
2019-05-26T16:35:08,42.805,6.029,4330,1995,192.786,58.971,13.299
2019-05-26T16:38:08,42.805,6.029,4330,1995,192.740,58.957,13.299
2019-05-26T16:41:08,42.805,6.029,4330,1995,192.797,58.976,13.300
2019-05-26T16:44:08,42.805,6.029,4330,1995,192.917,59.015,13.302
2019-05-26T16:47:08,42.805,6.029,4330,1995,193.049,59.051,13.299
2019-05-26T16:50:08,42.805,6.029,4330,1995,193.196,59.095,13.298
2019-05-26T16:53:08,42.805,6.029,4330,1995,193.006,59.035,13.297
2019-05-26T16:56:08,42.805,6.029,4330,1995,192.976,59.030,13.299
2019-05-26T16:59:08,42.805,6.029,4330,1995,192.961,59.026,13.300
2019-05-26T17:02:08,42.805,6.029,4330,1995,193.135,59.076,13.298
2019-05-26T17:05:08,42.805,6.029,4330,1995,193.176,59.090,13.298
2019-05-26T17:08:08,42.805,6.029,4330,1995,193.266,59.114,13.296
2019-05-26T17:11:08,42.805,6.029,4330,1995,193.266,59.114,13.296
2019-05-26T17:14:08,42.805,6.029,4330,1995,193.126,59.073,13.297
2019-05-26T17:17:08,42.805,6.029,4330,1995,193.315,59.126,13.293
2019-05-26T17:20:08,42.805,6.029,4330,1995,193.213,59.097,13.295
2019-05-26T17:23:08,42.805,6.029,4330,1995,193.425,59.160,13.294
2019-05-26T17:26:08,42.805,6.029,4330,1995,193.449,59.169,13.296
2019-05-26T17:29:08,42.805,6.029,4330,1995,193.532,59.197,13.297
2019-05-26T17:32:08,42.805,6.029,4330,1995,193.615,59.223,13.297
2019-05-26T17:35:08,42.805,6.029,4330,1995,193.540,59.196,13.295
2019-05-26T17:38:08,42.805,6.029,4330,1995,193.625,59.222,13.295
2019-05-26T17:41:08,42.805,6.029,4330,1995,193.482,59.177,13.294
2019-05-26T17:44:08,42.805,6.029,4330,1995,193.471,59.174,13.294
2019-05-26T17:47:08,42.805,6.029,4330,1995,193.367,59.140,13.293
2019-05-26T17:50:08,42.805,6.029,4330,1995,193.445,59.169,13.297
2019-05-26T17:53:08,42.805,6.029,4330,1995,193.612,59.219,13.295
2019-05-26T17:56:08,42.805,6.029,4330,1995,193.598,59.215,13.296
2019-05-26T17:59:08,42.805,6.029,4330,1995,193.690,59.243,13.296
2019-05-26T18:02:08,42.805,6.029,4330,1995,193.678,59.242,13.298
2019-05-26T18:05:08,42.805,6.029,4330,1995,193.684,59.239,13.294
2019-05-26T18:08:08,42.805,6.029,4330,1995,193.508,59.187,13.295